Date,TemperatureHighF,TemperatureAvgF,TemperatureLowF,DewpointHighF,DewpointAvgF,DewpointLowF,HumidityHigh,HumidityAvg,HumidityLow,PressureMaxIn,PressureMinIn,WindSpeedMaxMPH,WindSpeedAvgMPH,GustSpeedMaxMPH,PrecipitationSumIn
2013-7-1,74.7,72.3,69.6,73.4,70.9,68.3,98,95,92,30.12,29.97,2,0,4,0.28
2013-7-2,81.3,74.7,71.1,75.3,72.3,70.5,98,92,76,30.24,30.11,3,0,4,0.19
2013-7-3,84.4,76.5,71.2,74.5,71.5,68.8,96,85,67,30.30,30.22,4,1,7,0.00
2013-7-4,89.1,80.3,74.7,74.1,72.6,70.1,97,79,56,30.32,30.22,5,2,10,0.00
2013-7-5,91.0,81.7,73.9,74.5,71.2,68.7,92,72,51,30.28,30.15,6,1,10,0.00
2013-7-6,93.9,82.0,75.2,78.0,72.6,70.5,89,74,55,30.20,30.09,7,1,9,0.00
2013-7-7,92.8,83.0,75.0,75.7,72.5,66.0,92,72,49,30.13,29.99,5,1,10,0.00
2013-7-8,90.3,78.8,70.5,71.8,68.2,65.6,90,71,49,30.11,30.03,6,1,9,0.00
2013-7-9,88.0,76.5,69.6,74.8,70.1,66.6,94,82,53,30.14,30.06,4,0,8,0.01
2013-7-10,86.4,78.5,72.5,76.1,71.6,69.1,92,80,66,30.09,29.87,4,1,8,0.04
2013-7-11,83.7,76.9,69.8,73.3,70.0,61.8,94,80,62,30.00,29.87,3,0,5,0.00
2013-7-12,81.0,71.9,64.8,69.8,65.5,61.7,96,81,63,30.18,29.99,2,0,4,0.05
2013-7-13,78.8,71.0,64.2,74.7,69.2,63.1,98,94,85,30.35,30.18,2,0,4,0.02
2013-7-14,92.7,80.2,72.5,75.1,72.3,69.8,99,79,54,30.39,30.30,7,1,9,0.00
2013-7-15,92.5,81.2,74.3,80.0,73.0,70.2,91,77,51,30.31,30.21,4,0,8,0.00
2013-7-16,97.2,81.0,72.3,73.0,69.1,65.4,89,69,40,30.28,30.21,3,0,5,0.00
2013-7-17,100.0,82.9,72.7,74.2,70.4,66.8,90,68,42,30.27,30.13,4,0,6,0.00
2013-7-18,98.4,84.5,75.0,75.8,72.3,68.6,89,69,43,30.14,30.03,4,0,7,0.00
2013-7-19,97.5,86.5,77.9,75.4,73.1,71.2,85,66,45,30.04,29.86,9,2,14,0.00
2013-7-20,93.6,83.4,77.5,75.0,71.3,68.3,82,68,47,29.92,29.80,8,1,14,0.00
2013-7-21,90.3,78.5,70.9,70.9,65.7,59.2,88,67,40,30.04,29.91,3,0,4,0.00
2013-7-22,86.2,74.8,68.4,77.1,70.6,64.3,97,87,64,30.03,29.88,2,0,3,0.28
2013-7-23,88.0,75.9,71.2,75.7,72.0,70.1,98,89,57,29.88,29.63,6,1,9,0.34
2013-7-24,82.4,72.9,63.9,70.8,65.9,52.2,99,80,51,30.01,29.68,6,0,8,0.00
2013-7-25,66.9,63.2,59.5,59.8,55.0,49.3,85,75,66,30.12,30.01,2,0,4,0.00
2013-7-26,86.0,70.3,63.3,64.3,60.7,58.1,87,73,46,30.10,30.05,4,0,6,0.00
2013-7-27,84.9,73.0,64.4,65.1,62.6,57.7,95,72,47,30.12,30.03,4,1,8,0.00
2013-7-28,78.3,70.6,64.8,69.3,66.2,62.4,99,87,66,30.05,30.00,2,0,4,0.17
2013-7-29,84.6,73.3,64.9,70.8,65.1,55.5,99,78,44,30.15,30.02,7,0,11,0.01
2013-7-30,79.7,68.4,59.7,62.4,58.9,55.6,92,73,46,30.21,30.15,4,0,8,0.00
2013-7-31,82.8,70.5,60.1,63.7,59.4,55.3,92,70,42,30.22,30.09,7,0,9,0.00